sat.trackr.live / text

‹ back to catalog

STARLINK-35439

NORAD 66431 · 2025-259K

PAYLOAD ACTIVE UNKNOWN

§ Identity

Operator
Country
US
Launch date
2025-11-11
Launch site
AFETR
Launch vehicle
Mass (kg)
RCS (m²)

Purposes: comms

External: N2YO · Heavens-Above · Gunter

§ Orbital elements

Epoch: 2026-09-20T16:05:35.109600Z

Period
94.27 min
Inclination
43.0017°
Eccentricity
0.0001721
Mean motion
15.27596274 rev/d
Perigee alt
481.8 km
Apogee alt
484.2 km
Semi-major
6,861.1 km
B*
6.3050e-4
RAAN
252.9755°
Arg perigee
270.0663°
Mean anomaly
89.9991°
Rev number
4,931

§ Raw data

STARLINK-354391 66431U 25259K   26263.67054525  .00017137  00000+0  63050-3 0  99912 66431  43.0017 252.9755 0001721 270.0663  89.9991 15.27596274 49317

JSON: /api/v1/satellites/66431 · /tle

For live sub-satellite position, see the globe view (requires WebGL).

§ Visibility from observer

Set your observer location to see the next 7 days of passes ≥ 10°. The values pass through the URL so the page stays shareable.

No JS? Fill the form by hand. The geolocation button needs JavaScript.